Weather observations for the past three days for
Bethel, Bethel Airport
Metric (Imperial)
Date Time (akdt) Wind (kph) Vis. (km) Weather Sky Cond. Temperature (ºC) Relative Humidity Wind Chill (°C) Heat Index (°C) Pressure Precipitation (cm)
Air Dwpt 6 hour altimeter (cm) sea level (mb) 1 hr 3 hr 6 hr
Max. Min.
07 02:53 NW 13 16.09 Overcast OVC027 -1.7 -4.4 82% -6 76.45 1019.6
07 01:53 N 9 16.09 Overcast OVC025 -1.7 -4.4 82% -5 76.45 1019.7
07 00:53 NW 15 16.09 Overcast OVC025 -1.1 -5 75% -5 76.45 1019.6
06 23:53 W 6 16.09 Overcast OVC024 -0.6 -5.6 69% 76.45 1019.5
06 22:53 NW 11 16.09 Overcast OVC021 -0.6 -5 72% -4 76.45 1019.5
06 20:53 NW 11 16.09 Overcast OVC020 -0.6 -5 72% -4 76.45 1019.5
06 19:53 NW 13 G 30 16.09 Overcast OVC020 -0.6 -5 72% -4 76.45 1019.5
06 18:53 NW 15 16.09 Overcast BKN019 OVC080 -0.6 -5.6 69% -5 76.45 1019.5
06 17:53 W 11 16.09 Overcast OVC020 -0.6 -5.6 69% -4 76.43 1019.3
06 16:53 W 13 16.09 Mostly Cloudy BKN020 BKN080 0 -5.6 66% -4 76.45 1019.7
06 15:53 NW 9 16.09 Partly Cloudy SCT021 -0.6 -6.1 0 -3.9 67% -3 76.48 1019.8
06 14:53 NW 11 16.09 Overcast OVC018 -1.7 -6.7 69% -5 76.48 1019.8
06 13:53 Vrbl 6 16.09 Overcast OVC016 -2.2 -6.7 72% 76.5 1020.1
06 11:53 Calm 16.09 Overcast OVC013 -3.3 -6.1 81% 76.48 1019.9
06 10:53 NW 11 16.09 Overcast OVC012 -3.9 -6.7 81% -8 76.48 1019.9
06 09:53 NW 13 16.09 Overcast OVC011 -3.9 -6.1 -3.3 -3.9 85% -8 76.48 1019.8
06 08:53 W 7 16.09 Overcast OVC010 -3.9 -6.1 85% -7 76.45 1019.5
06 07:53 Calm 16.09 Overcast OVC010 -3.9 -6.1 85% 76.43 1019.2
06 06:53 W 11 16.09 Overcast OVC010 -3.9 -5.6 88% -8 76.4 1018.9
06 05:53 NW 7 16.09 Overcast OVC011 -3.3 -5.6 84% -6 76.4 1018.7
06 04:53 NW 13 16.09 Overcast OVC010 -3.3 -5.6 84% -8 76.38 1018.4
06 03:53 NW 11 16.09 Overcast OVC011 -3.3 -5.6 0 -3.3 84% -7 76.35 1018.1
06 02:53 NW 17 16.09 Overcast OVC012 -3.3 -5.6 84% -8 76.35 1018.0
06 01:53 NW 15 16.09 Overcast OVC012 -2.8 -5.6 81% -7 76.33 1017.8
06 00:53 NW 22 16.09 Mostly Cloudy BKN012 -3.3 -5.6 84% -9 76.3 1017.5
05 23:53 NW 17 16.09 Fair CLR -2.8 -5 85% -8 76.28 1017.2
05 22:53 NW 26 16.09 Fair CLR -1.7 -4.4 82% -8 76.2 1016.2
05 21:53 NW 28 16.09 Fair CLR 0 -3.9 3.3 0 75% -6 76.2 1015.9
05 20:53 NW 26 16.09 Fair CLR 1.1 -3.9 70% -4 76.15 1015.4
05 19:53 NW 30 G 41 16.09 Fair CLR 2.2 -3.9 64% -3 76.12 1015.1
05 18:53 NW 28 G 41 16.09 A Few Clouds FEW024 2.2 -3.9 64% -3 76.1 1014.9
05 17:53 NW 31 G 43 16.09 Fair CLR 2.8 -3.9 62% -3 76.07 1014.3
05 16:53 NW 28 G 43 16.09 Fair CLR 2.8 -4.4 59% -2 76.05 1014.1
05 15:53 NW 35 G 52 16.09 Fair and Breezy CLR 2.8 -3.9 2.8 -1.1 62% -3 76.02 1013.8
05 14:53 NW 31 G 44 16.09 Fair CLR 2.2 -3.9 64% -3 76.05 1013.9
05 13:53 NW 35 G 50 16.09 Fair and Breezy CLR 2.2 -3.9 64% -4 76 1013.3
05 12:53 NW 31 G 46 16.09 Fair CLR 1.1 -4.4 67% -5 76 1013.3
05 11:53 NW 35 G 54 16.09 Fair and Breezy CLR 0 -3.9 75% -7 75.95 1012.7
05 10:53 NW 35 G 50 16.09 Fair and Breezy CLR 0 -3.9 75% -7 75.9 1012.2
05 09:53 NW 31 G 46 16.09 Fair CLR -1.1 -4.4 -1.1 -2.8 79% -8 75.87 1011.7
05 08:53 NW 31 G 44 16.09 Fair CLR -2.2 -4.4 85% -9 75.82 1011.0
05 07:53 NW 33 G 50 16.09 Mostly Cloudy and Breezy BKN060 -2.8 -4.4 89% -10 75.77 1010.3
05 06:53 NW 33 G 48 16.09 A Few Clouds and Breezy FEW060 -2.8 -4.4 89% -10 75.72 1009.5
05 05:53 NW 30 16.09 Overcast OVC065 -1.7 -3.3 89% -8 75.67 1008.8
05 04:53 NW 30 16.09 Overcast OVC060 -1.7 -3.3 89% -8 75.62 1008.3
05 03:53 NW 31 16.09 Mostly Cloudy BKN044 BKN060 -1.1 -3.3 1.7 -1.7 85% -8 75.59 1008.0
05 02:53 NW 26 16.09 Mostly Cloudy BKN045 BKN055 -1.1 -3.3 85% -7 75.59 1007.8
05 01:53 NW 30 G 46 16.09 Overcast OVC039 -0.6 -2.8 85% -7 75.57 1007.7
05 00:53 NW 30 G 46 16.09 Fair CLR -1.1 -2.8 88% -7 75.57 1007.6
04 23:53 NW 31 16.09 Fair CLR -0.6 -3.3 82% -7 75.57 1007.6
04 22:53 NW 31 16.09 A Few Clouds FEW055 0.6 -3.3 75% -5 75.57 1007.5
04 21:53 NW 33 G 48 16.09 Fair and Breezy CLR 1.7 -2.8 5.6 1.7 72% -4 75.54 1007.4
04 20:53 NW 33 G 54 16.09 Fair and Breezy CLR 2.8 -2.8 67% -3 75.57 1007.5
04 19:53 N 44 G 56 16.09 Fair and Windy CLR 3.9 -2.8 62% -2 75.59 1007.9
04 18:53 N 37 G 54 16.09 Fair and Breezy CLR 5 -2.2 60% -0 75.59 1008.0
04 17:53 N 41 16.09 Fair and Breezy CLR 5 -2.2 60% -0 75.62 1008.2
04 16:53 N 43 G 52 16.09 Fair and Windy CLR 5.6 -2.2 58% 0 75.64 1008.8
04 15:53 N 37 G 52 16.09 Fair and Breezy CLR 5 -1.7 5 -1.1 62% -0 75.72 1009.7
04 14:53 N 39 G 52 16.09 Fair and Breezy CLR 4.4 -2.2 63% -1 75.79 1010.5
04 13:53 N 37 G 50 16.09 Fair and Breezy CLR 3.9 -2.2 65% -2 75.87 1011.6
04 12:53 N 33 16.09 Fair and Breezy CLR 3.3 -1.7 70% -2 75.92 1012.4
04 11:53 N 33 16.09 Fair and Breezy CLR 1.7 -2.2 76% -4 76 1013.3
04 10:53 N 30 16.09 Fair CLR 0.6 -2.8 78% -5 76.05 1014.0
04 09:53 N 28 16.09 Fair CLR -1.1 -3.3 -1.1 -3.9 85% -7 76.1 1014.6
04 08:53 N 26 16.09 Fair CLR -2.8 -3.9 92% -9 76.15 1015.2
04 07:53 N 26 16.09 Fair CLR -3.3 -4.4 92% -10 76.2 1015.9
04 06:53 NW 22 16.09 Fair CLR -3.9 -5 92% -10 76.23 1016.5
04 04:53 NW 20 16.09 Fair CLR -3.9 -5 92% -10 76.28 1017.3
04 03:53 NW 20 16.09 Fair CLR -3.3 -4.4 1.1 -3.3 92% -9 76.3 1017.7
Date Time (akdt) Wind (kph) Vis. (km) Weather Sky Cond. Air Dwpt Max. Min. Relative Humidity Wind Chill (°C) Heat Index (°C) altimeter (cm) sea level (mb) 1 hr 3 hr 6 hr
6 hour
Temperature (ºC) Pressure Precipitation (cm)